.
WxDataArchive / Data Records for 2011-06-22
2011-06-21 June 2011 2011-06-23

Data Records for Wednesday, 22 June 2011

Time	Temp	Chill	HIndex	Humid	Dewpt	 Wind 	HiWind	WindDir	Rain 	Barom 
-----	----	-----	------	-----	-----	------	------	-------	-----	----- 
00:00	72.8	72.8	72.8	83	67.3	0	1	135	0.00	29.703 
00:05	72.8	72.8	72.8	83	67.3	0	3	135	0.00	29.703 
00:10	73.0	73.0	73.0	83	67.5	0	3	135	0.00	29.703 
00:15	73.0	73.0	73.0	84	67.9	0	2	292	0.00	29.702 
00:20	73.0	73.0	73.0	84	67.9	0	2	90	0.00	29.702 
00:25	73.0	73.0	73.0	84	67.9	1	5	68	0.00	29.702 
00:30	73.0	73.0	73.0	84	67.9	1	4	135	0.00	29.705 
00:35	73.0	73.0	73.0	83	67.5	0	3	135	0.00	29.705 
00:40	73.2	73.2	73.2	83	67.7	0	2	135	0.00	29.705 
00:45	73.2	73.2	73.2	83	67.7	1	3	202	0.00	29.702 
00:50	73.2	73.2	73.2	83	67.7	0	3	112	0.00	29.702 
00:55	73.2	73.2	73.2	83	67.7	1	3	315	0.00	29.702 
01:00	73.2	73.2	73.2	83	67.7	0	2	315	0.00	29.701 
01:05	73.2	73.2	73.2	83	67.7	1	4	292	0.00	29.701 
01:10	73.2	73.2	73.2	83	67.7	0	3	292	0.00	29.701 
01:15	73.2	73.2	73.2	83	67.7	0	3	338	0.00	29.688 
01:20	73.2	73.2	73.2	83	67.7	0	2	225	0.00	29.688 
01:25	73.0	73.0	73.0	83	67.5	0	4	315	0.00	29.688 
01:30	73.0	73.0	73.0	83	67.5	0	4	315	0.00	29.691 
01:35	73.0	73.0	73.0	83	67.5	1	3	292	0.00	29.691 
01:40	72.8	72.8	72.8	83	67.3	0	2	112	0.00	29.691 
01:45	72.8	72.8	72.8	83	67.3	0	3	315	0.00	29.687 
01:50	72.8	72.8	72.8	82	67.0	0	3	270	0.00	29.687 
01:55	72.8	72.8	72.8	82	67.0	0	2	270	0.00	29.687 
02:00	72.7	72.7	72.7	83	67.2	0	2	270	0.00	29.685 
02:05	72.7	72.7	72.7	83	67.2	0	3	270	0.00	29.685 
02:10	72.7	72.7	72.7	83	67.2	0	3	45	0.00	29.685 
02:15	72.7	72.7	72.7	83	67.2	0	3	248	0.00	29.684 
02:20	72.7	72.7	72.7	83	67.2	0	2	248	0.00	29.684 
02:25	72.7	72.7	72.7	83	67.2	0	2	248	0.00	29.684 
02:30	72.5	72.5	72.5	83	67.0	1	4	248	0.00	29.681 
02:35	72.7	72.7	72.7	82	66.9	0	2	248	0.00	29.681 
02:40	72.7	72.7	72.7	82	66.9	0	2	225	0.00	29.681 
02:45	72.7	72.7	72.7	82	66.9	0	4	68	0.00	29.677 
02:50	72.7	72.7	72.7	81	66.5	1	3	112	0.00	29.677 
02:55	72.7	72.7	72.7	81	66.5	0	4	45	0.00	29.677 
03:00	72.7	72.7	72.7	81	66.5	1	4	292	0.00	29.680 
03:05	72.7	72.7	72.7	81	66.5	1	4	270	0.00	29.680 
03:10	72.7	72.7	72.7	81	66.5	0	3	68	0.00	29.680 
03:15	72.7	72.7	72.7	81	66.5	0	3	68	0.00	29.679 
03:20	72.7	72.7	72.7	81	66.5	0	2	22	0.00	29.679 
03:25	72.7	72.7	72.7	81	66.5	0	4	248	0.00	29.679 
03:30	72.7	72.7	72.7	81	66.5	0	3	22	0.00	29.675 
03:35	72.7	72.7	72.7	81	66.5	0	2	45	0.00	29.675 
03:40	72.7	72.7	72.7	82	66.9	0	1	45	0.00	29.675 
03:45	72.7	72.7	72.7	82	66.9	1	4	270	0.00	29.678 
03:50	72.7	72.7	72.7	82	66.9	0	4	270	0.00	29.678 
03:55	72.7	72.7	72.7	82	66.9	1	2	292	0.00	29.678 
04:00	72.7	72.7	72.7	82	66.9	1	3	292	0.00	29.676 
04:05	72.7	72.7	72.7	82	66.9	0	2	315	0.00	29.676 
04:10	72.7	72.7	72.7	82	66.9	1	3	248	0.00	29.676 
04:15	72.7	72.7	72.7	82	66.9	1	4	248	0.00	29.679 
04:20	72.7	72.7	72.7	82	66.9	1	6	292	0.00	29.679 
04:25	72.7	72.7	72.7	82	66.9	1	3	292	0.00	29.679 
04:30	72.7	72.7	72.7	82	66.9	0	3	248	0.00	29.683 
04:35	72.5	72.5	72.5	83	67.0	0	2	292	0.00	29.683 
04:40	72.5	72.5	72.5	83	67.0	0	3	225	0.00	29.683 
04:45	72.5	72.5	72.5	83	67.0	0	1	225	0.00	29.683 
04:50	72.5	72.5	72.5	83	67.0	0	3	225	0.00	29.683 
04:55	72.5	72.5	72.5	83	67.0	0	2	248	0.00	29.683 
05:00	72.5	72.5	72.5	83	67.0	0	2	248	0.00	29.686 
05:05	72.5	72.5	72.5	83	67.0	0	3	248	0.00	29.686 
05:10	72.5	72.5	72.5	82	66.7	0	3	248	0.00	29.686 
05:15	72.5	72.5	72.5	82	66.7	0	3	292	0.00	29.689 
05:20	72.5	72.5	72.5	82	66.7	0	3	270	0.00	29.689 
05:25	72.3	72.3	72.3	82	66.5	0	3	68	0.00	29.689 
05:30	72.3	72.3	72.3	82	66.5	0	2	68	0.00	29.691 
05:35	72.3	72.3	72.3	82	66.5	0	3	270	0.00	29.691 
05:40	72.3	72.3	72.3	82	66.5	0	3	270	0.00	29.691 
05:45	72.3	72.3	72.3	82	66.5	1	2	270	0.00	29.690 
05:50	72.1	72.1	72.1	82	66.3	0	3	112	0.00	29.690 
05:55	72.1	72.1	72.1	82	66.3	0	1	112	0.00	29.690 
06:00	72.1	72.1	72.1	82	66.3	0	3	112	0.00	29.690 
06:05	72.0	72.0	72.0	82	66.2	0	2	112	0.00	29.690 
06:10	72.0	72.0	72.0	83	66.5	0	3	90	0.00	29.690 
06:15	71.8	71.8	71.8	83	66.3	0	1	90	0.00	29.691 
06:20	71.8	71.8	71.8	83	66.3	0	1	90	0.00	29.691 
06:25	71.6	71.6	71.6	84	66.5	0	2	90	0.00	29.691 
06:30	71.5	71.5	71.5	84	66.4	0	2	68	0.00	29.691 
06:35	71.5	71.5	71.5	84	66.4	0	4	270	0.00	29.691 
06:40	71.3	71.3	71.3	84	66.2	0	3	270	0.00	29.691 
06:45	71.3	71.3	71.3	84	66.2	0	3	270	0.00	29.697 
06:50	71.3	71.3	71.3	84	66.2	0	2	270	0.00	29.697 
06:55	71.1	71.1	71.1	85	66.4	0	2	270	0.00	29.697 
07:00	71.1	71.1	71.1	85	66.4	0	2	270	0.00	29.705 
07:05	71.1	71.1	71.1	85	66.4	0	2	270	0.00	29.705 
07:10	71.1	71.1	71.1	86	66.7	0	2	270	0.00	29.705 
07:15	70.9	70.9	70.9	86	66.5	0	2	270	0.00	29.711 
07:20	70.9	70.9	70.9	86	66.5	0	1	270	0.00	29.711 
07:25	70.9	70.9	70.9	86	66.5	0	4	292	0.00	29.711 
07:30	70.9	70.9	70.9	86	66.5	0	1	292	0.00	29.722 
07:35	70.9	70.9	70.9	86	66.5	1	3	225	0.00	29.722 
07:40	70.9	70.9	70.9	85	66.2	1	4	225	0.00	29.722 
07:45	71.1	71.1	71.1	85	66.4	2	5	270	0.00	29.724 
07:50	71.3	71.3	71.3	84	66.2	1	4	270	0.00	29.724 
07:55	71.5	71.5	71.5	84	66.4	1	5	270	0.00	29.724 
08:00	71.6	71.6	71.6	84	66.5	0	3	90	0.00	29.724 
08:05	71.8	71.8	71.8	83	66.3	0	3	90	0.00	29.724 
08:10	72.0	72.0	72.0	83	66.5	1	3	248	0.00	29.724 
08:15	72.0	72.0	72.0	82	66.2	1	4	292	0.00	29.726 
08:20	72.0	72.0	72.0	83	66.5	1	3	248	0.00	29.726 
08:25	71.8	71.8	71.8	83	66.3	2	5	270	0.00	29.726 
08:30	72.0	72.0	72.0	83	66.5	1	4	248	0.00	29.729 
08:35	71.8	71.8	71.8	83	66.3	1	4	270	0.00	29.729 
08:40	71.8	71.8	71.8	83	66.3	1	5	292	0.00	29.729 
08:45	71.8	71.8	71.8	83	66.3	1	4	270	0.00	29.727 
08:50	71.6	71.6	71.6	83	66.2	1	4	248	0.00	29.727 
08:55	71.8	71.8	71.8	83	66.3	1	7	248	0.00	29.727 
09:00	71.8	71.8	71.8	83	66.3	1	6	248	0.00	29.727 
09:05	72.0	72.0	72.0	83	66.5	1	3	270	0.00	29.727 
09:10	72.0	72.0	72.0	83	66.5	1	4	270	0.00	29.727 
09:15	72.1	72.1	72.1	83	66.6	1	3	248	0.00	29.726 
09:20	72.3	72.3	72.3	83	66.8	1	3	248	0.00	29.726 
09:25	72.8	72.8	72.8	83	67.3	0	3	270	0.00	29.726 
09:30	73.5	73.5	73.5	81	67.3	1	6	68	0.00	29.715 
09:35	74.2	74.2	74.2	80	67.6	1	4	68	0.00	29.715 
09:40	74.7	74.7	74.7	78	67.4	1	5	68	0.00	29.715 
09:45	74.9	74.9	74.9	77	67.2	1	8	315	0.00	29.708 
09:50	74.9	74.9	74.9	78	67.6	1	6	225	0.00	29.708 
09:55	75.3	75.3	76.2	78	68.0	1	5	270	0.00	29.708 
10:00	76.0	76.0	77.2	77	68.3	1	5	112	0.00	29.699 
10:05	76.1	76.1	77.5	75	67.6	2	4	0	0.00	29.699 
10:10	76.7	76.7	78.3	73	67.4	2	9	112	0.00	29.699 
10:15	77.2	77.2	79.0	73	67.9	2	6	90	0.00	29.688 
10:20	77.7	77.7	79.7	72	67.9	2	6	270	0.00	29.688 
10:25	78.1	78.1	80.2	72	68.3	2	7	270	0.00	29.688 
10:30	77.7	77.7	79.7	72	67.9	2	7	270	0.00	29.687 
10:35	77.7	77.7	79.7	73	68.3	1	4	248	0.00	29.687 
10:40	78.1	78.1	80.3	73	68.7	1	6	90	0.00	29.687 
10:45	78.5	78.5	80.8	71	68.3	2	6	338	0.00	29.676 
10:50	78.6	78.6	80.9	71	68.4	1	4	292	0.00	29.676 
10:55	78.1	78.1	80.2	70	67.5	2	5	248	0.00	29.676 
11:00	77.9	77.9	79.9	72	68.1	1	4	270	0.00	29.674 
11:05	78.1	78.1	80.2	72	68.3	1	4	292	0.00	29.674 
11:10	78.5	78.5	80.8	72	68.7	1	6	315	0.00	29.674 
11:15	78.8	78.8	81.2	71	68.6	2	5	248	0.00	29.674 
11:20	79.4	79.4	82.1	71	69.2	2	4	90	0.00	29.674 
11:25	79.4	79.4	81.9	69	68.3	3	7	90	0.00	29.674 
11:30	79.0	79.0	81.4	70	68.4	3	9	90	0.00	29.676 
11:35	78.8	78.8	81.3	72	69.0	1	3	292	0.00	29.676 
11:40	79.4	79.4	81.9	69	68.3	2	4	90	0.00	29.676 
11:45	78.8	78.8	81.1	70	68.2	2	4	338	0.00	29.677 
11:50	78.3	78.3	80.4	69	67.3	2	9	270	0.00	29.677 
11:55	78.5	78.5	80.8	72	68.7	2	6	292	0.00	29.677 
12:00	78.5	78.5	80.7	70	67.9	2	6	248	0.00	29.676 
12:05	78.3	78.3	80.4	70	67.7	1	5	270	0.00	29.676 
12:10	78.3	78.3	80.5	71	68.1	2	5	270	0.00	29.676 
12:15	78.3	78.3	80.4	70	67.7	3	9	270	0.00	29.678 
12:20	78.3	78.3	80.4	69	67.3	2	10	270	0.00	29.678 
12:25	78.6	78.6	80.8	69	67.6	2	5	90	0.00	29.678 
12:30	79.2	79.2	81.8	71	69.0	1	4	90	0.00	29.675 
12:35	79.6	79.6	82.0	67	67.7	2	8	270	0.00	29.675 
12:40	79.9	79.9	82.3	66	67.5	3	7	270	0.00	29.675 
12:45	79.8	79.8	82.3	67	67.8	2	9	315	0.00	29.665 
12:50	79.4	79.4	81.6	66	67.0	3	7	315	0.00	29.665 
12:55	79.4	79.4	81.6	65	66.6	3	10	270	0.00	29.665 
13:00	80.1	80.1	82.7	67	68.1	2	5	248	0.00	29.663 
13:05	80.5	80.5	82.9	64	67.2	3	9	90	0.00	29.663 
13:10	80.5	80.5	82.9	64	67.2	2	6	68	0.00	29.663 
13:15	80.3	80.3	82.7	64	67.0	2	7	112	0.00	29.661 
13:20	80.7	80.7	82.9	62	66.4	2	5	90	0.00	29.661 
13:25	80.3	80.3	82.7	64	67.0	2	12	68	0.00	29.661 
13:30	80.7	80.7	82.9	62	66.4	2	7	45	0.00	29.653 
13:35	80.7	80.7	82.8	61	66.0	3	7	270	0.00	29.653 
13:40	80.3	80.3	82.3	61	65.6	2	6	270	0.00	29.653 
13:45	80.3	80.3	82.4	62	66.1	2	10	112	0.00	29.645 
13:50	79.6	79.6	81.5	62	65.4	3	11	270	0.00	29.645 
13:55	79.8	79.8	81.8	62	65.6	2	9	90	0.00	29.645 
14:00	79.8	79.8	81.8	62	65.6	3	7	270	0.00	29.644 
14:05	79.9	79.9	81.7	60	64.7	2	6	248	0.00	29.644 
14:10	80.3	80.3	82.3	61	65.6	3	10	90	0.00	29.644 
14:15	80.7	80.7	82.8	61	66.0	2	6	68	0.00	29.631 
14:20	81.2	81.2	83.5	61	66.4	3	7	0	0.00	29.631 
14:25	81.2	81.2	82.6	55	63.5	3	10	90	0.00	29.631 
14:30	80.5	80.5	82.1	57	63.8	2	11	270	0.00	29.629 
14:35	80.1	80.1	81.7	58	64.0	3	11	270	0.00	29.629 
14:40	79.9	79.9	81.5	58	63.8	3	10	90	0.00	29.629 
14:45	80.3	80.3	81.9	58	64.2	3	9	292	0.00	29.627 
14:50	81.1	81.1	82.8	57	64.4	3	11	90	0.00	29.627 
14:55	81.1	81.1	82.3	54	62.9	3	11	270	0.00	29.627 
15:00	80.9	80.9	82.1	54	62.7	4	12	270	0.00	29.617 
15:05	80.9	80.9	82.3	55	63.2	3	16	112	0.00	29.617 
15:10	81.2	81.2	82.3	53	62.4	3	12	248	0.00	29.617 
15:15	81.4	81.4	82.7	54	63.1	3	13	112	0.00	29.612 
15:20	81.4	81.4	82.7	54	63.1	3	9	315	0.00	29.612 
15:25	81.4	81.4	82.5	53	62.6	4	12	248	0.00	29.612 
15:30	81.8	81.8	83.2	54	63.5	3	8	225	0.00	29.613 
15:35	82.2	82.2	83.6	54	63.9	2	6	270	0.00	29.613 
15:40	82.2	82.2	83.6	54	63.9	2	11	90	0.00	29.613 
15:45	82.0	82.0	83.1	52	62.6	3	12	270	0.00	29.606 
15:50	81.2	81.2	82.3	53	62.4	3	9	270	0.00	29.606 
15:55	81.1	81.1	82.1	52	61.8	4	14	270	0.00	29.606 
16:00	80.9	80.9	81.8	51	61.0	3	15	270	0.00	29.599 
16:05	81.1	81.1	82.2	53	62.3	4	10	248	0.00	29.599 
16:10	81.4	81.4	82.4	52	62.1	3	10	270	0.00	29.599 
16:15	81.8	81.8	82.6	50	61.3	4	11	270	0.00	29.602 
16:20	82.6	82.6	83.6	51	62.6	3	10	248	0.00	29.602 
16:25	82.8	82.8	83.2	47	60.5	4	12	270	0.00	29.602 
16:30	82.8	82.8	83.2	47	60.5	3	6	270	0.00	29.602 
16:35	83.0	83.0	83.5	48	61.3	2	10	270	0.00	29.602 
16:40	83.4	83.4	83.3	44	59.2	3	10	248	0.00	29.602 
16:45	83.2	83.2	83.0	43	58.3	3	7	270	0.00	29.605 
16:50	83.2	83.2	82.3	38	54.9	4	10	270	0.00	29.605 
16:55	83.2	83.2	82.7	41	57.0	2	6	248	0.00	29.605 
17:00	83.0	83.0	82.6	42	57.5	2	11	270	0.00	29.611 
17:05	82.6	82.6	82.1	41	56.5	3	11	270	0.00	29.611 
17:10	81.8	81.8	81.5	42	56.4	3	7	270	0.00	29.611 
17:15	81.6	81.6	81.5	43	56.9	3	10	270	0.00	29.615 
17:20	81.8	81.8	81.5	42	56.4	3	10	270	0.00	29.615 
17:25	82.2	82.2	82.0	43	57.4	2	5	270	0.00	29.615 
17:30	82.4	82.4	82.0	42	57.0	3	9	292	0.00	29.612 
17:35	82.4	82.4	82.5	45	58.9	1	9	270	0.00	29.612 
17:40	82.4	82.4	82.2	43	57.6	2	6	270	0.00	29.612 
17:45	82.2	82.2	82.0	43	57.4	4	7	292	0.00	29.617 
17:50	82.0	82.0	81.8	43	57.3	3	6	270	0.00	29.617 
17:55	81.4	81.4	81.5	45	58.0	3	6	270	0.00	29.617 
18:00	80.7	80.7	81.3	49	59.7	4	12	270	0.00	29.627 
18:05	79.6	79.6	80.5	50	59.3	6	10	270	0.00	29.627 
18:10	78.8	78.8	79.9	52	59.7	5	9	270	0.00	29.627 
18:15	78.5	78.5	79.7	52	59.4	5	12	270	0.00	29.634 
18:20	78.3	78.3	79.6	52	59.2	4	10	270	0.00	29.634 
18:25	78.3	78.3	79.5	51	58.7	4	7	292	0.00	29.634 
18:30	78.5	78.5	79.6	51	58.8	3	10	270	0.00	29.633 
18:35	77.9	77.9	79.3	52	58.8	4	10	270	0.00	29.633 
18:40	77.2	77.2	78.8	53	58.7	5	10	270	0.00	29.633 
18:45	77.0	77.0	78.7	52	58.0	4	13	270	0.00	29.636 
18:50	76.5	76.5	78.4	52	57.5	5	9	270	0.00	29.636 
18:55	76.1	76.1	78.1	53	57.7	3	7	270	0.00	29.636 
19:00	75.8	75.8	78.0	53	57.4	3	6	270	0.00	29.643 
19:05	75.6	75.6	77.9	53	57.2	3	6	270	0.00	29.643 
19:10	75.4	75.4	77.8	54	57.6	2	5	270	0.00	29.643 
19:15	75.3	75.3	77.7	54	57.5	3	6	270	0.00	29.645 
19:20	75.3	75.3	77.7	55	58.0	1	4	270	0.00	29.645 
19:25	75.1	75.1	77.6	56	58.3	1	4	270	0.00	29.645 
19:30	75.1	75.1	77.6	55	57.8	2	7	270	0.00	29.650 
19:35	75.1	75.1	77.6	54	57.3	2	4	270	0.00	29.650 
19:40	75.1	75.1	77.6	54	57.3	2	5	248	0.00	29.650 
19:45	75.1	75.1	77.6	54	57.3	3	7	270	0.00	29.652 
19:50	75.1	75.1	77.6	55	57.8	2	9	248	0.00	29.652 
19:55	74.9	74.9	74.9	55	57.6	2	6	270	0.00	29.652 
20:00	74.7	74.7	74.7	55	57.4	2	5	270	0.00	29.655 
20:05	74.7	74.7	74.7	56	57.9	1	3	248	0.00	29.655 
20:10	74.6	74.6	74.6	56	57.8	3	6	270	0.00	29.655 
20:15	74.4	74.4	74.4	56	57.7	2	5	270	0.00	29.659 
20:20	74.2	74.2	74.2	57	58.0	2	5	248	0.00	29.659 
20:25	74.0	74.0	74.0	57	57.8	3	6	292	0.00	29.659 
20:30	73.9	73.9	73.9	57	57.7	5	10	270	0.00	29.666 
20:35	73.5	73.5	73.5	58	57.8	4	10	270	0.00	29.666 
20:40	73.5	73.5	73.5	58	57.8	2	7	270	0.00	29.666 
20:45	73.2	73.2	73.2	59	58.0	4	9	270	0.00	29.672 
20:50	72.8	72.8	72.8	59	57.6	3	6	270	0.00	29.672 
20:55	72.3	72.3	72.3	60	57.6	3	7	270	0.00	29.672 
21:00	72.1	72.1	72.1	60	57.4	2	5	292	0.00	29.670 
21:05	72.0	72.0	72.0	61	57.8	2	4	270	0.00	29.670 
21:10	71.8	71.8	71.8	62	58.1	1	4	270	0.00	29.670 
21:15	71.8	71.8	71.8	61	57.6	2	5	270	0.00	29.665 
21:20	71.8	71.8	71.8	61	57.6	2	4	270	0.00	29.665 
21:25	71.8	71.8	71.8	62	58.1	1	4	292	0.00	29.665 
21:30	71.6	71.6	71.6	62	57.9	0	2	292	0.00	29.657 
21:35	71.6	71.6	71.6	62	57.9	2	4	315	0.00	29.657 
21:40	71.6	71.6	71.6	62	57.9	2	4	315	0.00	29.657 
21:45	71.5	71.5	71.5	62	57.8	1	4	315	0.00	29.657 
21:50	71.5	71.5	71.5	62	57.8	2	5	292	0.00	29.657 
21:55	71.5	71.5	71.5	62	57.8	1	4	292	0.00	29.657 
22:00	71.3	71.3	71.3	62	57.6	0	2	292	0.00	29.659 
22:05	71.3	71.3	71.3	63	58.0	0	3	292	0.00	29.659 
22:10	71.1	71.1	71.1	63	57.9	0	2	292	0.00	29.659 
22:15	71.1	71.1	71.1	63	57.9	1	3	112	0.00	29.661 
22:20	71.1	71.1	71.1	63	57.9	0	3	112	0.00	29.661 
22:25	71.1	71.1	71.1	63	57.9	0	3	112	0.00	29.661 
22:30	71.1	71.1	71.1	63	57.9	1	5	112	0.00	29.663 
22:35	71.1	71.1	71.1	63	57.9	1	6	112	0.00	29.663 
22:40	71.1	71.1	71.1	63	57.9	1	5	270	0.00	29.663 
22:45	71.3	71.3	71.3	63	58.0	0	3	270	0.00	29.662 
22:50	71.1	71.1	71.1	63	57.9	0	2	0	0.00	29.662 
22:55	71.1	71.1	71.1	63	57.9	0	3	248	0.00	29.662 
23:00	71.1	71.1	71.1	63	57.9	0	3	270	0.00	29.660 
23:05	70.9	70.9	70.9	62	57.2	0	2	292	0.00	29.660 
23:10	70.9	70.9	70.9	62	57.2	0	4	292	0.00	29.660 
23:15	70.9	70.9	70.9	62	57.2	0	1	292	0.00	29.663 
23:20	70.6	70.6	70.6	63	57.4	0	2	292	0.00	29.663 
23:25	70.4	70.4	70.4	63	57.2	0	1	292	0.00	29.663 
23:30	70.1	70.1	70.1	64	57.3	0	2	292	0.00	29.666 
23:35	69.9	69.9	69.9	64	57.2	0	2	292	0.00	29.666 
23:40	69.6	69.6	69.6	65	57.3	1	3	292	0.00	29.666 
23:45	69.4	69.4	69.4	65	57.1	1	3	248	0.00	29.667 
23:50	69.3	69.3	69.3	66	57.4	1	4	248	0.00	29.667 
23:55	69.1	69.1	69.1	66	57.3	0	3	338	0.00	29.667 

CoCoRaHS
IN-AL-39
A2 Web Hosting
Creative Commons License
GoDaddy
search engine by freefind advanced

loaded 2018-11-14 03:38:40 • last modified 2010-11-18 10:43:29
Privacy PolicyDisclaimer
• wx.awcolley.com is powered by PmWiki v.2002016 •
• all content (unless otherwise noted) © 2018 A W Colley